Weather History for Aurora, IL

Change the Weather History Date:

Monday, January 28, 2013

  Actual Average Record
Temperature  
Mean Temperature 42 °F 21 °F  
Max Temperature 46 °F 29 °F 54 °F (2002)
Min Temperature 38 °F 12 °F -15 °F (2014)
Degree Days  
Heating Degree Days 23 44  
Month to date heating degree days 1140 1234  
Since 1 July heating degree days 3593 3883  
Cooling Degree Days 0 0  
Month to date cooling degree days 0 0  
Year to date cooling degree days 0 0  
Moisture  
Dew Point 41 °F    
Average Humidity 95    
Maximum Humidity 100    
Minimum Humidity 89    
Precipitation  
Precipitation 0.23 in 0.06 in 0.73 in (2006)
Month to date precipitation 1.60 1.29  
Year to date precipitation 1.60 1.29  
Sea Level Pressure  
Sea Level Pressure 29.88 in    
Wind  
Wind Speed 8 mph (SSE)    
Max Wind Speed 17 mph    
Max Gust Speed 23 mph    
Visibility 2 miles    
Events Fog , Rain , Thunderstorm    
T = Trace of Precipitation, MM = Missing Value Source: NWS Daily Summary

Daily Weather History Graph

Daily Weather History Graph

Search for Another Location

Airport:

Trip Planner

Search our weather history database for the weather conditions in past years. The results will help you decide how hot, cold, wet, or windy it might be!

Date:

Astronomy

Jan. 28, 2013 Rise Set
Actual Time 7:09 AM CST 5:04 PM CST
Civil Twilight 6:40 AM CST 5:34 PM CST
Nautical Twilight 6:06 AM CST 6:07 PM CST
Astronomical Twilight 5:33 AM CST 6:40 PM CST
Moon 7:01 PM CST (1/28) 7:33 AM CST (1/28)
Length of Visible Light 10h 54m
Length of Day
9h 54m
Full, 98% of the Moon is Illuminated
Jan 28
Full
Feb 3
Last Quarter
Feb 10
New
Feb 17
First Quarter
Feb 25
Full

Hourly Weather History & Observations

Time (CST) Temp. Windchill Dew Point Humidity Pressure Visibility Wind Dir Wind Speed Gust Speed Precip Events Conditions
12:16 AM 35.6 °F 27.5 °F 35.6 °F 100% 29.88 in 0.8 mi South 11.5 mph - 0.00 in   Mist
12:50 AM 35.6 °F 28.0 °F 35.6 °F 100% 29.87 in 0.2 mi South 10.4 mph - 0.00 in Fog Fog
12:52 AM 36.0 °F 29.0 °F 36.0 °F 100% 29.89 in 0.2 mi South 9.2 mph - 0.00 in Fog Fog
1:52 AM 37.9 °F 30.9 °F 37.9 °F 100% 29.88 in 0.2 mi South 10.4 mph - N/A Fog Fog
2:13 AM 39.2 °F 31.6 °F 39.2 °F 100% 29.85 in 0.5 mi SSW 12.7 mph - 0.01 in Fog , Rain Light Rain
2:20 AM 42.8 °F 35.1 °F 42.8 °F 100% 29.85 in 2.0 mi South 16.1 mph 23.0 mph 0.01 in Rain Light Rain
2:52 AM 43.0 °F 35.7 °F 42.1 °F 97% 29.86 in 2.0 mi SSW 15.0 mph - 0.01 in   Overcast
3:10 AM 42.8 °F 35.4 °F 42.8 °F 100% 29.83 in 1.8 mi SSW 15.0 mph - N/A   Overcast
3:31 AM 42.8 °F 35.4 °F 42.8 °F 100% 29.83 in 3.0 mi SSW 15.0 mph 23.0 mph 0.02 in Rain Light Rain
3:52 AM 44.1 °F 37.4 °F 43.0 °F 96% 29.84 in 2.5 mi SSW 13.8 mph 20.7 mph 0.02 in   Overcast
4:28 AM 44.6 °F 38.1 °F 44.6 °F 100% 29.82 in 1.8 mi SSW 13.8 mph - 0.00 in   Overcast
4:52 AM 45.0 °F 38.9 °F 45.0 °F 100% 29.84 in 1.5 mi SSW 12.7 mph - 0.01 in Rain Light Rain
5:52 AM 46.0 °F 41.0 °F 45.0 °F 96% 29.84 in 1.8 mi SSW 10.4 mph - 0.00 in   Overcast
6:52 AM 46.0 °F 40.6 °F 46.0 °F 100% 29.86 in 1.2 mi SW 11.5 mph - N/A   Overcast
7:52 AM 45.0 °F 39.7 °F 45.0 °F 100% 29.88 in 0.5 mi SW 10.4 mph - N/A Fog Fog
8:18 AM 44.6 °F 39.2 °F 44.6 °F 100% 29.88 in 0.2 mi WSW 10.4 mph - 0.01 in Fog Fog
8:52 AM 44.1 °F 39.5 °F 44.1 °F 100% 29.91 in 0.2 mi WSW 8.1 mph - 0.01 in Fog Fog
9:52 AM 43.0 °F 38.2 °F 43.0 °F 100% 29.93 in 0.2 mi WNW 8.1 mph - N/A Fog Fog
10:05 AM 42.8 °F 37.5 °F 42.8 °F 100% 29.92 in 0.8 mi WNW 9.2 mph - N/A   Overcast
10:12 AM 42.8 °F 38.0 °F 42.8 °F 100% 29.93 in 1.8 mi WNW 8.1 mph - N/A   Overcast
10:52 AM 43.0 °F 39.5 °F 43.0 °F 100% 29.95 in 1.5 mi WNW 5.8 mph - N/A   Overcast
11:04 AM 42.8 °F 37.5 °F 42.8 °F 100% 29.94 in 2.5 mi WNW 9.2 mph - N/A   Overcast
11:17 AM 42.8 °F 37.0 °F 42.8 °F 100% 29.94 in 3.0 mi WNW 10.4 mph - N/A   Overcast
11:43 AM 42.8 °F 37.0 °F 42.8 °F 100% 29.93 in 5.0 mi West 10.4 mph - N/A   Overcast
11:52 AM 42.1 °F 37.1 °F 41.0 °F 96% 29.95 in 5.0 mi West 8.1 mph - N/A   Overcast
12:52 PM 44.1 °F 40.1 °F 41.0 °F 89% 29.94 in 7.0 mi WNW 6.9 mph - N/A   Overcast
1:52 PM 43.0 °F 41.3 °F 39.9 °F 89% 29.93 in 8.0 mi WSW 3.5 mph - N/A   Overcast
2:52 PM 43.0 °F - 39.9 °F 89% 29.94 in 8.0 mi Calm Calm - N/A   Overcast
4:52 PM 41.0 °F 39.0 °F 39.0 °F 93% 29.94 in 6.0 mi ENE 3.5 mph - N/A   Overcast
5:11 PM 39.2 °F - 37.4 °F 93% 29.92 in 5.0 mi Calm Calm - N/A   Scattered Clouds
5:35 PM 37.4 °F - 37.4 °F 100% 29.93 in 4.0 mi Calm Calm - N/A   Mostly Cloudy
5:52 PM 37.9 °F 35.5 °F 37.0 °F 97% 29.94 in 5.0 mi ENE 3.5 mph - N/A   Overcast
6:52 PM 39.0 °F 35.7 °F 37.9 °F 96% 29.94 in 5.0 mi East 4.6 mph - N/A   Overcast
7:33 PM 41.0 °F 38.0 °F 39.2 °F 93% 29.91 in 3.0 mi East 4.6 mph - N/A   Overcast
7:52 PM 41.0 °F 37.1 °F 41.0 °F 100% 29.93 in 1.5 mi East 5.8 mph - N/A   Overcast
8:10 PM 41.0 °F 36.4 °F 41.0 °F 100% 29.91 in 0.8 mi East 6.9 mph - N/A   Overcast
8:52 PM 39.9 °F 34.5 °F 39.9 °F 100% 29.92 in 0.8 mi East 8.1 mph - N/A   Mist
9:52 PM 39.9 °F 33.4 °F 39.9 °F 100% 29.88 in 0.5 mi East 10.4 mph - N/A Fog Fog
10:12 PM 39.2 °F 33.6 °F 39.2 °F 100% 29.85 in 0.2 mi East 8.1 mph - N/A Fog Fog
10:30 PM 41.0 °F 39.0 °F 41.0 °F 100% 29.85 in 0.5 mi East 3.5 mph - 0.02 in Fog , Rain Light Rain
10:47 PM 41.0 °F 35.2 °F 41.0 °F 100% 29.82 in 0.5 mi East 9.2 mph - 0.11 in Fog , Rain , Thunderstorm Thunderstorms and Rain
10:52 PM 41.0 °F 37.1 °F 41.0 °F 100% 29.84 in 0.5 mi ESE 5.8 mph - 0.16 in Fog , Rain , Thunderstorm Heavy Thunderstorms and Rain
10:57 PM 41.0 °F 34.7 °F 41.0 °F 100% 29.81 in 1.0 mi East 10.4 mph - 0.02 in Rain Heavy Rain
11:06 PM 42.8 °F 37.0 °F 42.8 °F 100% 29.81 in 3.0 mi East 10.4 mph - 0.02 in Rain Light Rain
11:14 PM 42.8 °F 36.2 °F 42.8 °F 100% 29.81 in 2.0 mi East 12.7 mph - 0.02 in Thunderstorm Overcast
11:23 PM 42.8 °F 37.0 °F 42.8 °F 100% 29.80 in 1.5 mi ESE 10.4 mph - 0.02 in Thunderstorm Overcast
11:35 PM 42.8 °F 37.5 °F 42.8 °F 100% 29.79 in 1.0 mi ESE 9.2 mph - 0.02 in   Overcast
11:45 PM 42.8 °F 37.0 °F 42.8 °F 100% 29.79 in 0.5 mi ESE 10.4 mph - 0.02 in Fog Fog
11:52 PM 43.0 °F 38.2 °F 43.0 °F 100% 29.81 in 0.5 mi ESE 8.1 mph - 0.02 in Fog Fog